MIDAS 5 DEB, 273

Orbit data source: Space-Track

MIDAS 5 DEB, 273 is space debris in LEO originally from a launch on Mon, 09 Apr 1962 UTC launched from the Air Force Western Test Range (AFWTR). Debris objects in space refer to the collection of defunct objects orbiting the Earth. Examples of debris include non-operational satellites, rocket bodies, and fragments generated from explosions, collisions, or faulty payload assembly.

Loading next visibility...
Identifier
273, 1962-010C
Orbit
LEO
Country
Flag of USUS
Related business
Manufacturer
Unknown
Mission
Spacecraft
Bus & Motor
Unknown
Mass
~10 kg wet, ~10 kg dry
Launch date (UTC)
1962-04-09 (64 years ago)
Launch vehicle
Unknown
Launch site
Air Force Western Test Range (AFWTR)
Object type
Payload
Rocket body
Debris
Shape & HBR
Unknown shape, 0.4 m
Radar Cross Section
Medium (>0.1 m² and <1 m²)

Expand to show TLE details & history
Last TLE update: 6 hours ago

TLE from 6 hours ago
0 MIDAS 5 DEB
1 00273U 62010C   26070.95837729 -.00000009  00000-0 -23932-2 0  9998
2 00273  86.6590 311.3040 0327774 338.9950  19.7753  9.43830316202112
Epoch: 2026-03-11T23:00Z
TLE epoch observation values (Epoch: 2026-03-11T23:00:03.797Z)
Latitude
-0.00009°
Longitude
156.67302°
Altitude
2,791.776 km
Speed
6.694 km/s
True Right ascension
20h 45m 12s
True Declination
0° 00' 00"
Sunlit
Object was in daylight at epoch
Visualization orbit readout
Latitude
Unknown
Longitude
Unknown
Altitude
Unknown
Speed
Unknown
Apparent Right ascension
Unknown
Apparent Declination
Unknown
Sunlit
N/A
Visualization observer readout
Local Sidereal Time
09:34:56
Azimuth
Unknown
Elevation
Unknown
Doppler factor
Unknown
Orbital elements
Apogee altitude
3,387.642 km
Perigee altitude
2,767.766 km
Semi-major axis
9,455.841 km
Eccentricity
0.03278
Inclination
86.659°
RAAN
311.304°
Arg. of periapsis
338.995°
True anomaly
21.09684°
Mean anomaly
19.7753°
Eccentric anomaly
20.43087°
Mean motion
2.36044 °/min
Orbital period
152.51 mins
BSTAR
-0.0023932
Loading maneuver chart data...
Computing Atmospheric mass density...
Loading historical data...
Loading historical data...
Loading historical data...
Loading historical data...
Loading historical data...
Loading historical data...
Loading historical data...

Documentation

Showing up to 5 results
|